• Join FlightAware (Why Join?)
  • Login
  • US Flag 
07:45AM EDT


 

Airport Tracker/Info


-or-


 

Live Flight TrackerFlight Track Log ✈ ASQ6041 ✈ 07-Jul-2013 ✈ KGUC - KDEN

Flight Track Log - Related Links

Times and Time Zones

All times are in EDT time to prevent confusion due to time zone crossing. See the ASQ6041 flight status page for this flight to view local times or setup timezone preferences in your user account.

Time Position Orientation Groundspeed Altitude Reporting Facility
EDT Latitude Longitude Course Direction KTS MPH feet Rate Location/Type
02:40PM 38.7498 -106.6088 49° Northeast  Level FlightAware Approximate
02:41PM 38.8123 -106.5165 47° Northeast  Level FlightAware Approximate
02:42PM 38.8773 -106.4271 47° Northeast  Level FlightAware Approximate
02:43PM 38.9465 -106.3500 North  Level FlightAware Approximate
02:43PM 38.4786 -107.0050 34° Northeast 329 379 17,700  Level Denver Center
02:44PM 39.0098 -106.2604 49° Northeast  Level FlightAware Approximate
02:44PM 38.5592 -106.8925 48° Northeast 354 407 19,200  Level Denver Center
02:45PM 39.0718 -106.1673 49° Northeast  Level FlightAware Approximate
02:45PM 38.6311 -106.7933 47° Northeast 372 428 20,400  Level Denver Center
02:46PM 39.1281 -106.0702 60° Northeast  Level FlightAware Approximate
02:46PM 38.6931 -106.6844 54° Northeast 385 443 21,900  Level Denver Center
02:47PM 39.1763 -105.9642 57° Northeast  Level FlightAware Approximate
02:47PM 38.7100 -106.5483 81° East 388 447 23,400  Level Denver Center
02:48PM 38.7503 -106.4228 68° East 397 457 24,900 1,260 Climbing Denver Center
02:49PM 38.8153 -106.3161 52° Northeast 390 449 26,100 480 Climbing Denver Center
02:50PM 38.8733 -106.1472 66° East 444 511 26,000 -60 Descending Denver Center
02:51PM 38.9219 -106.0036 66° East 459 528 26,000 -300 Level Denver Center
02:52PM 38.9872 -105.8286 64° Northeast 478 550 25,400 -1,260 Descending Denver Center
02:53PM 39.0417 -105.6825 64° Northeast 475 547 23,500 -2,160 Descending Denver Center
02:54PM 39.0994 -105.5236 65° Northeast 441 507 21,000 -2,160 Descending Denver Center
02:56PM 39.2000 -105.2667 63° Northeast 403 464 17,200 -1,860 Descending Denver TRACON
02:57PM 39.2581 -105.1369 60° Northeast 379 436 15,300 -1,440 Descending Denver Center
02:58PM 39.3078 -105.0183 62° Northeast 347 399 14,000 -840 Descending Denver Center
02:59PM 39.3456 -104.9097 66° East 320 368 13,600 -960 Descending Denver Center
03:00PM 39.4147 -104.8336 40° Northeast 333 383 12,100 -780 Descending Denver Center
03:01PM 39.5014 -104.7919 20° North 301 346 12,000 -780 Descending Denver Center
03:02PM 39.5758 -104.7650 16° North 278 320 10,600 -1,560 Descending Denver Center
03:03PM 39.6567 -104.7381 14° North 277 319 8,800 -1,800 Descending Denver Center